User: anonymous   Login
Location: Seminole
(32.7190°N, 102.6440°W)
Time: 11:37:18
(UTC-05:00)
Language:

Meteor 2-10 - Orbit

View from above orbital plane
View from above orbital plane
View from above satellite
View from above satellite

Ground track
Ground track

The orbit data is extracted from the following two-line orbital elements,

1 14452U 83109A   18114.14427993  .00000049  00000-0  14282-4 0  9995
2 14452  81.1591 122.4498 0090709 198.2525 161.5394 14.26454946793351
Epoch (UTC): 24 April 2018 03:27:45
Eccentricity: 0.0090709
inclination: 81.1591°
perigee height: 738 km
apogee height: 869 km
right ascension of ascending node: 122.4498°
argument of perigee: 198.2525°
revolutions per day: 14.26454946
mean anomaly at epoch: 161.5394°
orbit number at epoch: 79335

The dashed part of the orbit path shows where the satellite is in the earth's shadow,  

DLR